Terminal Aerodrome Forecast
Issued by NWS Tiyan, Guam

Home | Current Version | Previous Version | Text Only | Print | Product List | Glossary On
Versions: 1 2 3 4 5 6 7 8 9 10 11 12 13 14 15 16 17 18 19 20 21 22 23 24 25 26 27 28 29 30
000
FTPQ31 PGUM 021332 AAA
TAFGUM
TAF AMD
PGUM 021332Z 0214/0318 08012KT P6SM VCSH SCT025 SCT050 SCT120
      TEMPO 0214/0218 -SHRA BKN027
     FM021800 07011KT P6SM VCSH SCT022 SCT050 BKN120
     FM022300 07014G24KT P6SM VCSH SCT020 BKN060 OVC110=

USA.gov is the U.S. government's official web portal to all federal, state and local government web resources and services.